Hinckley, MN

12:42 PM CDT on April 30, 2017 (GMT -0500)
Hinckley

Weather History for K04W - October, 2012

Change the Weather History Date:

Friday, October 5, 2012

  Actual Average (KJMR) Record (KJMR)
Temperature  
Mean Temperature 37 °F -  
Max Temperature 39 °F 62 °F 87 °F (1947)
Min Temperature 35 °F 34 °F 20 °F (1935)
Degree Days  
Heating Degree Days 28    
Moisture  
Dew Point 27 °F    
Average Humidity 69    
Maximum Humidity 87    
Minimum Humidity 61    
Precipitation  
Precipitation 0.00 in - - ()
Sea Level Pressure  
Sea Level Pressure 30.05 in    
Wind  
Wind Speed 16 mph (West)    
Max Wind Speed 23 mph    
Max Gust Speed 31 mph    
Visibility 10 miles    
Events Rain    
Averages and records for this station are not official NWS values.
T = Trace of Precipitation, MM = Missing Value Source: NWS Daily Summary

Daily Weather History Graph

Daily Weather History Graph

Search for Another Location

Airport or City:

Trip Planner

Search our weather history database for the weather conditions in past years. The results will help you decide how hot, cold, wet, or windy it might be!

Date:

Astronomy

Oct. 05, 2012 Rise Set
Actual Time 7:15 AM CDT 6:43 PM CDT
Civil Twilight 6:46 AM CDT 7:12 PM CDT
Nautical Twilight 6:11 AM CDT 7:47 PM CDT
Astronomical Twilight 5:36 AM CDT 8:22 PM CDT
Moon 9:51 PM CDT (10/5) 12:39 PM CDT (10/5)
Length of Visible Light 12h 26m
Length of Day
11h 27m
Waning Gibbous, 74% of the Moon is Illuminated
Oct 5
Waning Gibbous
Oct 8
Last Quarter
Oct 15
New
Oct 21
First Quarter
Oct 29
Full

Hourly Weather History & Observations

Time (CDT) Temp. Windchill Dew Point Humidity Pressure Visibility Wind Dir Wind Speed Gust Speed Precip Events Conditions
12:15 AM 37.4 °F 27.8 °F 30.2 °F 75% 30.05 in 10.0 mi West 17.3 mph 25.3 mph N/A   Overcast
12:35 AM 35.6 °F 27.5 °F 32.0 °F 87% 30.04 in 10.0 mi West 11.5 mph 19.6 mph N/A   Overcast
1:15 AM 35.6 °F 26.2 °F 30.2 °F 81% 30.04 in 10.0 mi West 15.0 mph 21.9 mph N/A   Overcast
1:35 AM 35.6 °F 24.8 °F 30.2 °F 81% 30.04 in 10.0 mi West 19.6 mph 24.2 mph N/A   Overcast
1:55 AM 35.6 °F 26.2 °F 28.4 °F 75% 30.04 in 10.0 mi West 15.0 mph 27.6 mph N/A   Overcast
2:15 AM 37.4 °F 27.2 °F 28.4 °F 70% 30.04 in 10.0 mi West 19.6 mph 26.5 mph N/A   Overcast
2:35 AM 37.4 °F 27.5 °F 28.4 °F 70% 30.04 in 10.0 mi West 18.4 mph 27.6 mph N/A   Overcast
2:55 AM 37.4 °F 26.9 °F 28.4 °F 70% 30.04 in 10.0 mi West 20.7 mph 28.8 mph N/A   Overcast
3:15 AM 37.4 °F 26.6 °F 28.4 °F 70% 30.04 in 10.0 mi West 21.9 mph 26.5 mph N/A   Overcast
3:35 AM 37.4 °F 26.4 °F 26.6 °F 65% 30.03 in 10.0 mi West 23.0 mph 26.5 mph N/A   Overcast
3:55 AM 35.6 °F 25.9 °F 26.6 °F 70% 30.03 in 10.0 mi West 16.1 mph 27.6 mph N/A   Overcast
4:15 AM 35.6 °F 25.2 °F 26.6 °F 70% 30.02 in 10.0 mi West 18.4 mph 29.9 mph N/A   Overcast
4:35 AM 35.6 °F 25.2 °F 26.6 °F 70% 30.03 in 10.0 mi West 18.4 mph 29.9 mph N/A   Overcast
4:55 AM 35.6 °F 25.5 °F 26.6 °F 70% 30.02 in 10.0 mi West 17.3 mph 28.8 mph N/A   Overcast
5:15 AM 35.6 °F 24.8 °F 26.6 °F 70% 30.02 in 10.0 mi West 19.6 mph 29.9 mph N/A   Overcast
5:35 AM 35.6 °F 25.5 °F 26.6 °F 70% 30.02 in 10.0 mi West 17.3 mph 31.1 mph N/A   Overcast
5:55 AM 35.6 °F 24.8 °F 26.6 °F 70% 30.02 in 10.0 mi West 19.6 mph 28.8 mph N/A   Overcast
6:15 AM 35.6 °F 25.2 °F 26.6 °F 70% 30.03 in 10.0 mi West 18.4 mph 27.6 mph N/A   Overcast
6:35 AM 35.6 °F 25.9 °F 26.6 °F 70% 30.02 in 10.0 mi West 16.1 mph 25.3 mph N/A   Overcast
6:55 AM 35.6 °F 25.9 °F 26.6 °F 70% 30.02 in 10.0 mi West 16.1 mph 26.5 mph N/A   Overcast
7:15 AM 35.6 °F 25.9 °F 26.6 °F 70% 30.02 in 10.0 mi West 16.1 mph 27.6 mph N/A   Overcast
7:35 AM 35.6 °F 24.5 °F 26.6 °F 70% 30.02 in 10.0 mi West 20.7 mph 29.9 mph N/A   Overcast
7:55 AM 35.6 °F 24.5 °F 24.8 °F 65% 30.02 in 10.0 mi West 20.7 mph 28.8 mph N/A   Overcast
8:15 AM 35.6 °F 24.5 °F 26.6 °F 70% 30.02 in 10.0 mi West 20.7 mph 26.5 mph N/A   Overcast
8:35 AM 35.6 °F 26.6 °F 26.6 °F 70% 30.03 in 10.0 mi West 13.8 mph 26.5 mph N/A   Overcast
8:55 AM 35.6 °F 25.9 °F 26.6 °F 70% 30.03 in 10.0 mi West 16.1 mph 25.3 mph N/A   Overcast
9:15 AM 35.6 °F 25.5 °F 26.6 °F 70% 30.04 in 10.0 mi West 17.3 mph 26.5 mph N/A   Overcast
9:55 AM 35.6 °F 25.2 °F 26.6 °F 70% 30.05 in 10.0 mi West 18.4 mph 25.3 mph N/A   Overcast
10:15 AM 35.6 °F 25.5 °F 26.6 °F 70% 30.06 in 10.0 mi West 17.3 mph 24.2 mph N/A   Overcast
10:35 AM 35.6 °F 26.2 °F 26.6 °F 70% 30.06 in 10.0 mi West 15.0 mph 27.6 mph N/A   Overcast
10:55 AM 35.6 °F 25.2 °F 26.6 °F 70% 30.06 in 10.0 mi West 18.4 mph 28.8 mph N/A   Overcast
11:15 AM 35.6 °F 25.2 °F 26.6 °F 70% 30.06 in 10.0 mi West 18.4 mph 25.3 mph N/A   Overcast
11:35 AM 35.6 °F 26.2 °F 26.6 °F 70% 30.05 in 10.0 mi West 15.0 mph 26.5 mph N/A   Overcast
11:55 AM 35.6 °F 26.6 °F 26.6 °F 70% 30.05 in 10.0 mi West 13.8 mph 23.0 mph N/A   Overcast
12:15 PM 37.4 °F 28.9 °F 26.6 °F 65% 30.05 in 10.0 mi West 13.8 mph 24.2 mph N/A   Overcast
12:35 PM 37.4 °F 27.2 °F 26.6 °F 65% 30.05 in 10.0 mi West 19.6 mph 26.5 mph N/A   Overcast
12:55 PM 37.4 °F 26.9 °F 26.6 °F 65% 30.05 in 10.0 mi West 20.7 mph 25.3 mph N/A   Overcast
1:15 PM 37.4 °F 28.5 °F 26.6 °F 65% 30.04 in 10.0 mi West 15.0 mph 27.6 mph N/A   Overcast
1:35 PM 37.4 °F 28.2 °F 26.6 °F 65% 30.04 in 10.0 mi West 16.1 mph 23.0 mph N/A   Overcast
2:15 PM 37.4 °F 26.9 °F 26.6 °F 65% 30.04 in 10.0 mi West 20.7 mph 25.3 mph N/A   Overcast
2:35 PM 37.4 °F 26.9 °F 26.6 °F 65% 30.04 in 10.0 mi West 20.7 mph 26.5 mph N/A   Overcast
2:55 PM 37.4 °F 27.8 °F 26.6 °F 65% 30.04 in 10.0 mi West 17.3 mph 23.0 mph N/A   Overcast
3:15 PM 37.4 °F 27.8 °F 26.6 °F 65% 30.04 in 10.0 mi West 17.3 mph 25.3 mph N/A   Overcast
3:35 PM 39.2 °F 31.6 °F 26.6 °F 61% 30.03 in 10.0 mi West 12.7 mph 20.7 mph N/A   Overcast
3:55 PM 39.2 °F 32.0 °F 26.6 °F 61% 30.04 in 10.0 mi West 11.5 mph 24.2 mph N/A   Overcast
4:15 PM 39.2 °F 31.6 °F 26.6 °F 61% 30.04 in 10.0 mi WSW 12.7 mph 18.4 mph N/A   Overcast
4:35 PM 37.4 °F 29.3 °F 28.4 °F 70% 30.04 in 10.0 mi West 12.7 mph - N/A   Light Drizzle
4:55 PM 37.4 °F 28.9 °F 26.6 °F 65% 30.04 in 10.0 mi West 13.8 mph 19.6 mph N/A   Overcast
5:15 PM 37.4 °F 30.3 °F 26.6 °F 65% 30.04 in 10.0 mi West 10.4 mph 16.1 mph N/A   Overcast
5:35 PM 39.2 °F 32.5 °F 26.6 °F 61% 30.04 in 10.0 mi WNW 10.4 mph 17.3 mph N/A   Overcast
5:55 PM 39.2 °F 32.0 °F 26.6 °F 61% 30.05 in 10.0 mi WNW 11.5 mph 18.4 mph N/A   Overcast
6:15 PM 37.4 °F 32.1 °F 26.6 °F 65% 30.06 in 10.0 mi NW 6.9 mph 17.3 mph N/A Rain Light Rain
6:35 PM 37.4 °F 29.3 °F 26.6 °F 65% 30.06 in 10.0 mi NW 12.7 mph 20.7 mph N/A   Overcast
6:55 PM 37.4 °F 30.3 °F 26.6 °F 65% 30.06 in 10.0 mi WNW 10.4 mph 18.4 mph N/A   Overcast
7:15 PM 37.4 °F 30.8 °F 28.4 °F 70% 30.07 in 10.0 mi WNW 9.2 mph 16.1 mph N/A   Overcast
7:35 PM 37.4 °F 30.8 °F 26.6 °F 65% 30.07 in 10.0 mi WNW 9.2 mph - N/A   Overcast
7:55 PM 37.4 °F 31.4 °F 26.6 °F 65% 30.08 in 10.0 mi WNW 8.1 mph - N/A   Overcast
8:15 PM 37.4 °F 30.3 °F 26.6 °F 65% 30.08 in 10.0 mi WNW 10.4 mph - N/A   Overcast
8:35 PM 35.6 °F 28.6 °F 26.6 °F 70% 30.08 in 10.0 mi WNW 9.2 mph - N/A   Overcast
8:55 PM 35.6 °F 29.2 °F 26.6 °F 70% 30.08 in 10.0 mi WNW 8.1 mph - N/A   Overcast
9:15 PM 35.6 °F 27.5 °F 26.6 °F 70% 30.08 in 10.0 mi WNW 11.5 mph 19.6 mph N/A   Overcast
9:35 PM 35.6 °F 28.0 °F 28.4 °F 75% 30.09 in 10.0 mi WNW 10.4 mph 25.3 mph N/A   Overcast
9:55 PM 35.6 °F 26.2 °F 28.4 °F 75% 30.09 in 10.0 mi WNW 15.0 mph 24.2 mph N/A   Overcast
10:15 PM 35.6 °F 28.0 °F 28.4 °F 75% 30.09 in 10.0 mi WNW 10.4 mph 17.3 mph N/A   Overcast
10:35 PM 35.6 °F 27.5 °F 28.4 °F 75% 30.09 in 10.0 mi WNW 11.5 mph 19.6 mph N/A   Overcast
11:15 PM 35.6 °F 29.2 °F 30.2 °F 81% 30.09 in 10.0 mi WNW 8.1 mph - N/A   Overcast
11:35 PM 35.6 °F 29.9 °F 30.2 °F 81% 30.09 in 10.0 mi WNW 6.9 mph - N/A   Overcast
11:55 PM 35.6 °F 28.0 °F 30.2 °F 81% 30.10 in 10.0 mi NW 10.4 mph 17.3 mph N/A   Overcast